Location: Unspecified
(0.0000°N, 0.0000°E)
Time: 17:43:24
(UTC+00:00)

Vanguard 2 - Pass Details

Date: 19 April 2026
Orbit: 553 x 2895 km, 32.9° (Epoch: 17 May)

Event Time Altitude Azimuth Distance (km) Brightness Sun altitude
Rises 20:55:25 0° 271° (W) 4,834 12.4 -43.0°
Reaches altitude 10° 20:58:46 10° 261° (W) 4,170 11.8 -43.8°
Maximum altitude 21:08:57 31° 203° (SSW) 3,541 10.7 -46.2°
Enters shadow 21:10:21 31° 194° (SSW) 3,645 10.8 -46.6°
